Location: Feydey
(46.3431°N, 7.0106°E)
Time: 14:53:08
(UTC+00:00)

ARIANE 5 R/B - Pass Details

Date: 20 June 2021
Orbit: 620 x 656 km, 98.1° (Epoch: 28 July)

Event Time Altitude Azimuth Distance (km) Brightness Sun altitude
Exits shadow 21:38:37 13° 204° (SSW) 1,870 4.7 -15.5°
Maximum altitude 21:42:06 32° 264° (W) 1,125 4.1 -15.8°
Drops below altitude 10° 21:46:08 10° 327° (NNW) 2,066 6.6 -16.1°
Sets 21:48:35 0° 338° (NNW) 2,987 7.9 -16.3°
